Lid_Strength_Index
3 3 3 4 4 4 4 7 10 3 2 9 9 11 10 10 9 7 7 8 10 11 10 11 10 11 9 7 7 9 7 9 12 11 9 8 8 9 9 16 17 12 14 12
3 3 3 4 4 4 5 9 8 2 3 12 12 10 10 9 9 8 8 9 9 9 10 12 10 9 8 7 7 8 8 9 13 13 11 9 10 9 8 9 10 16 16 13
2 2 3 3 4 4 4 8 11 7 6 7 10 11 11 11 8 8 8 8 8 9 11 10 10 10 9 8 7 7 6 9 10 13 11 10 12 10 9 10 12 12 11 11
2 2 2 3 4 3 4 8 9 7 11 10 9 9 10 11 12 8 8 9 9 9 11 11 11 9 9 8 7 7 7 10 9 10 10 9 10 10 10 11 10 12 10 10
2 2 2 2 3 3 5 9 9 8 9 7 8 9 10 11 11 10 10 9 9 8 10 10 11 9 9 9 8 8 7 10 9 12 10 11 12 10 10 10 10 10 11 10
2 2 2 2 3 3 6 6 6 8 9 9 10 9 9 10 9 9 8 8 8 9 9 8 7 7 7 7 8 8 8 10 11 13 10 11 13 11 10 10 9 9 11 8
2 2 2 2 2 2 3 5 6 9 11 9 9 9 8 9 8 10 8 7 8 7 5 6 6 8 8 7 8 6 9 9 10 14 11 16 10 9 8 9 8 8 8 7
2 2 2 2 2 2 3 4 6 8 11 9 10 9 8 7 7 8 7 6 6 5 6 9 13 12 12 11 9 8 7 9 13 15 14 12 12 11 10 10 9 7 7 7
1 1 1 1 2 2 2 3 4 7 10 10 9 9 9 9 8 8 7 4 3 5 8 10 14 15 12 13 11 9 9 8 10 14 15 16 10 9 7 7 12 6 6 6
0 -0 0 0 1 1 2 3 2 6 9 8 8 9 9 7 8 8 7 6 6 5 9 13 13 13 10 13 12 13 12 12 15 13 13 11 9 8 7 12 10 7 6 5
-0 -1 -1 -1 -0 0 2 4 2 5 8 7 6 7 8 7 7 9 8 7 7 8 11 11 11 12 11 11 9 11 11 13 13 12 15 14 8 9 10 7 6 6 6 5
-1 -1 -1 -1 -1 -1 0 5 1 2 5 7 5 5 5 5 6 7 8 9 7 6 9 9 9 11 9 11 13 9 11 9 11 10 10 7 7 7 6 5 5 6 5 6
-0 -1 -1 -1 -1 -1 -1 2 2 4 6 6 7 7 5 4 4 3 8 7 8 9 8 8 8 11 9 12 11 10 8 8 8 9 8 7 7 6 5 5 5 5 5 5
1 -0 -1 -1 -2 -1 -1 1 1 2 4 8 7 4 6 4 4 4 4 6 7 8 8 9 9 10 7 9 9 9 8 8 8 8 8 7 6 6 5 5 5 5 5 5
1 0 -1 -1 -1 -1 -2 -1 0 0 4 7 6 5 4 4 4 5 5 5 6 8 10 10 10 7 7 7 8 9 7 8 9 9 6 6 6 4 4 5 5 5 5 5
0 1 -0 -1 -1 -2 -0 5 0 -0 1 5 8 3 5 5 5 5 5 5 6 7 9 9 8 6 8 10 10 7 6 5 5 7 5 4 4 4 4 5 5 4 5 4
-0 0 -0 -1 -1 -1 3 3 1 -0 1 5 8 6 4 4 5 5 6 5 6 6 7 9 10 9 7 10 10 7 6 5 5 5 5 6 5 6 4 4 4 5 4 4
-0 -0 -0 -1 -1 -1 2 -0 -1 0 3 4 8 7 6 3 5 6 4 7 6 7 8 7 9 8 8 11 8 6 6 6 6 5 5 5 4 4 4 4 4 5 5 5
-0 -0 -1 -1 1 4 2 -1 -1 -1 2 7 7 9 9 3 4 3 5 5 9 7 9 9 8 10 11 9 8 7 6 6 6 5 5 5 6 5 5 5 5 5 5 5
-1 0 4 6 3 -1 -1 2 5 5 4 4 7 4 8 5 5 6 6 6 8 11 9 7 10 11 8 7 6 5 5 5 5 6 6 5 6 6 5 5 4 5 4 4
3 4 5 1 -1 2 4 7 8 7 8 6 5 5 7 3 7 7 4 7 7 12 10 10 11 13 9 7 7 6 5 4 5 5 4 4 4 5 5 5 4 4 4 4
2 2 1 3 4 6 8 9 7 8 9 6 7 6 5 4 3 6 6 8 7 13 6 11 12 9 7 6 7 6 5 5 5 4 4 4 4 4 4 4 4 4 4 4
2 4 5 6 6 10 11 12 10 9 7 6 7 8 6 5 4 6 7 10 10 5 10 12 12 9 7 6 6 6 5 4 4 4 4 4 4 4 3 4 4 4 4 4
5 7 10 9 10 9 8 8 8 5 5 6 6 7 7 6 7 7 10 8 7 11 14 13 9 7 7 6 6 6 5 5 4 4 4 4 3 4 5 5 6 8 9 8
6 6 10 9 6 6 5 5 5 5 4 5 6 6 6 8 9 8 9 11 12 11 12 9 6 5 6 6 6 7 6 5 4 3 3 5 5 7 6 7 6 6 9 8
6 7 8 7 7 7 7 6 6 4 4 4 5 8 9 10 9 10 11 12 13 10 7 5 4 6 6 6 6 6 6 6 4 3 3 3 4 6 4 5 5 9 9 9
8 8 6 6 6 7 6 5 5 3 5 8 7 10 11 7 10 11 8 10 8 6 5 4 4 6 6 5 6 6 6 6 5 4 4 3 3 3 4 5 6 6 7 9